Time,TemperatureF,DewpointF,PressureIn,WindDirection,WindDirectionDegrees,WindSpeedMPH,WindSpeedGustMPH,Humidity,HourlyPrecipIn,Conditions,Clouds,dailyrainin,SoftwareType,DateUTC
2013-05-07 00:00:00,55.3,53.3,30.08,NE,49,0.0,3.0,93,0.00,,OVC041CB,0.01,VWS V14.01,2013-05-07 05:00:00,
2013-05-07 00:01:00,55.3,53.3,30.08,NE,49,0.0,0.0,93,0.00,,CLR,0.00,VWS V14.01,2013-05-07 05:01:00,
2013-05-07 00:06:00,55.1,53.1,30.08,NE,49,0.0,2.0,93,0.00,,CLR,0.00,VWS V14.01,2013-05-07 05:06:00,
2013-05-07 00:11:00,55.0,53.3,30.08,NE,48,0.0,2.0,94,0.00,,CLR,0.00,VWS V14.01,2013-05-07 05:11:00,
2013-05-07 00:16:00,55.0,53.3,30.07,NE,48,0.0,2.0,94,0.00,,CLR,0.00,VWS V14.01,2013-05-07 05:16:00,
2013-05-07 00:21:00,55.0,53.6,30.07,NE,49,2.0,2.0,95,0.00,,CLR,0.00,VWS V14.01,2013-05-07 05:21:00,
2013-05-07 00:26:00,55.0,53.3,30.07,North,0,0.0,2.0,94,0.00,,CLR,0.00,VWS V14.01,2013-05-07 05:26:00,
2013-05-07 00:31:00,55.0,53.3,30.07,NE,49,2.0,2.0,94,0.00,,CLR,0.00,VWS V14.01,2013-05-07 05:31:00,
2013-05-07 00:36:00,54.8,53.1,30.07,NE,49,0.0,2.0,94,0.00,,CLR,0.00,VWS V14.01,2013-05-07 05:36:00,
2013-05-07 00:42:00,54.7,53.0,30.07,NE,49,0.0,2.0,94,0.00,,CLR,0.00,VWS V14.01,2013-05-07 05:42:00,
2013-05-07 00:47:00,54.7,53.0,30.08,NE,49,0.0,2.0,94,0.00,,CLR,0.00,VWS V14.01,2013-05-07 05:47:00,
2013-05-07 00:52:00,54.7,53.0,30.08,NE,49,0.0,5.0,94,0.00,,CLR,0.00,VWS V14.01,2013-05-07 05:52:00,
2013-05-07 00:57:00,54.7,52.7,30.08,NE,49,0.0,5.0,93,0.00,,CLR,0.00,VWS V14.01,2013-05-07 05:57:00,
2013-05-07 01:02:00,54.5,52.5,30.08,NE,49,0.0,0.0,93,0.00,,CLR,0.00,VWS V14.01,2013-05-07 06:02:00,
2013-05-07 01:07:00,54.5,52.5,30.08,NE,49,0.0,1.0,93,0.00,,CLR,0.00,VWS V14.01,2013-05-07 06:07:00,
2013-05-07 01:12:00,54.5,52.5,30.08,NE,54,0.0,5.0,93,0.00,,CLR,0.00,VWS V14.01,2013-05-07 06:12:00,
2013-05-07 01:17:00,54.4,52.1,30.08,NE,54,0.0,5.0,92,0.00,,CLR,0.00,VWS V14.01,2013-05-07 06:17:00,
2013-05-07 01:22:00,54.2,51.9,30.08,NE,54,0.0,5.0,92,0.00,,CLR,0.00,VWS V14.01,2013-05-07 06:22:00,
2013-05-07 01:27:00,54.1,51.8,30.08,NE,54,0.0,5.0,92,0.00,,CLR,0.00,VWS V14.01,2013-05-07 06:27:00,
2013-05-07 01:32:00,53.9,51.6,30.08,NE,54,0.0,5.0,92,0.00,,CLR,0.00,VWS V14.01,2013-05-07 06:32:00,
2013-05-07 01:37:00,53.8,51.5,30.08,NE,54,0.0,5.0,92,0.00,,CLR,0.00,VWS V14.01,2013-05-07 06:37:00,
2013-05-07 01:42:00,53.5,51.2,30.08,NE,54,0.0,5.0,92,0.00,,CLR,0.00,VWS V14.01,2013-05-07 06:42:00,
2013-05-07 01:47:00,53.3,51.0,30.08,NE,54,0.0,5.0,92,0.00,,CLR,0.00,VWS V14.01,2013-05-07 06:47:00,
2013-05-07 01:52:00,53.1,50.8,30.08,NE,54,0.0,5.0,92,0.00,,CLR,0.00,VWS V14.01,2013-05-07 06:52:00,
2013-05-07 01:57:00,52.9,50.6,30.08,NE,54,0.0,5.0,92,0.00,,CLR,0.00,VWS V14.01,2013-05-07 06:57:00,
2013-05-07 02:02:00,52.6,50.3,30.08,NE,54,0.0,0.0,92,0.00,,CLR,0.00,VWS V14.01,2013-05-07 07:02:00,
2013-05-07 02:08:00,52.5,50.2,30.08,NE,54,0.0,0.0,92,0.00,,CLR,0.00,VWS V14.01,2013-05-07 07:08:00,
2013-05-07 02:13:00,52.5,50.5,30.08,NE,54,0.0,0.0,93,0.00,,CLR,0.00,VWS V14.01,2013-05-07 07:13:00,
2013-05-07 02:18:00,52.5,50.8,30.07,NE,54,0.0,0.0,94,0.00,,CLR,0.00,VWS V14.01,2013-05-07 07:18:00,
2013-05-07 02:23:00,52.3,50.6,30.07,NE,54,0.0,0.0,94,0.00,,CLR,0.00,VWS V14.01,2013-05-07 07:23:00,
2013-05-07 02:28:00,52.0,50.3,30.07,NE,54,0.0,0.0,94,0.00,,CLR,0.00,VWS V14.01,2013-05-07 07:28:00,
2013-05-07 02:33:00,51.7,50.0,30.07,NE,54,0.0,0.0,94,0.00,,CLR,0.00,VWS V14.01,2013-05-07 07:33:00,
2013-05-07 02:38:00,51.4,49.7,30.07,NE,54,0.0,0.0,94,0.00,,CLR,0.00,VWS V14.01,2013-05-07 07:38:00,
2013-05-07 02:43:00,51.1,49.4,30.07,NE,54,0.0,0.0,94,0.00,,CLR,0.00,VWS V14.01,2013-05-07 07:43:00,
2013-05-07 02:48:00,50.8,49.1,30.07,NE,54,0.0,0.0,94,0.00,,CLR,0.00,VWS V14.01,2013-05-07 07:48:00,
2013-05-07 02:53:00,51.0,49.6,30.07,NE,54,0.0,0.0,95,0.00,,CLR,0.00,VWS V14.01,2013-05-07 07:53:00,
2013-05-07 02:58:00,51.0,49.9,30.07,NE,54,0.0,0.0,96,0.00,,CLR,0.00,VWS V14.01,2013-05-07 07:58:00,
2013-05-07 03:03:00,50.8,49.7,30.07,NE,54,0.0,0.0,96,0.00,,,0.00,VWS V14.01,2013-05-07 08:03:00,
2013-05-07 03:08:00,50.7,49.6,30.07,NE,54,0.0,0.0,96,0.00,,,0.00,VWS V14.01,2013-05-07 08:08:00,
2013-05-07 03:13:00,50.5,49.7,30.07,NE,54,0.0,0.0,97,0.00,,,0.00,VWS V14.01,2013-05-07 08:13:00,
2013-05-07 03:18:00,50.5,49.4,30.07,NE,54,0.0,0.0,96,0.00,,,0.00,VWS V14.01,2013-05-07 08:18:00,
2013-05-07 03:23:00,50.4,49.6,30.07,NE,54,0.0,0.0,97,0.00,,,0.00,VWS V14.01,2013-05-07 08:23:00,
2013-05-07 03:28:00,50.2,49.4,30.07,NE,54,0.0,0.0,97,0.00,,,0.00,VWS V14.01,2013-05-07 08:28:00,
2013-05-07 03:33:00,50.1,49.3,30.07,NE,54,0.0,0.0,97,0.00,,,0.00,VWS V14.01,2013-05-07 08:33:00,
2013-05-07 03:38:00,49.8,49.0,30.07,NE,54,0.0,0.0,97,0.00,,,0.00,VWS V14.01,2013-05-07 08:38:00,
2013-05-07 03:43:00,49.9,49.1,30.07,NE,54,0.0,0.0,97,0.00,,,0.00,VWS V14.01,2013-05-07 08:43:00,
2013-05-07 03:48:00,49.8,49.0,30.07,NE,54,0.0,0.0,97,0.00,,,0.00,VWS V14.01,2013-05-07 08:48:00,
2013-05-07 03:53:00,49.6,48.8,30.07,NE,54,0.0,0.0,97,0.00,,,0.00,VWS V14.01,2013-05-07 08:53:00,
2013-05-07 03:59:00,49.6,48.8,30.07,NE,54,0.0,0.0,97,0.00,,,0.00,VWS V14.01,2013-05-07 08:59:00,
2013-05-07 04:04:00,49.5,49.0,30.07,NE,54,0.0,0.0,98,0.00,,,0.00,VWS V14.01,2013-05-07 09:04:00,
2013-05-07 04:09:00,49.5,49.0,30.07,NE,54,0.0,0.0,98,0.00,,,0.00,VWS V14.01,2013-05-07 09:09:00,
2013-05-07 04:14:00,49.5,49.0,30.07,NE,54,0.0,0.0,98,0.00,,,0.00,VWS V14.01,2013-05-07 09:14:00,
2013-05-07 04:19:00,49.5,49.0,30.07,NE,54,0.0,0.0,98,0.00,,,0.00,VWS V14.01,2013-05-07 09:19:00,
2013-05-07 04:24:00,49.5,49.0,30.07,NE,54,0.0,0.0,98,0.00,,,0.00,VWS V14.01,2013-05-07 09:24:00,
2013-05-07 04:29:00,49.4,49.1,30.07,NE,54,0.0,0.0,99,0.00,,,0.00,VWS V14.01,2013-05-07 09:29:00,
2013-05-07 04:34:00,49.2,48.9,30.07,NE,54,0.0,0.0,99,0.00,,,0.00,VWS V14.01,2013-05-07 09:34:00,
2013-05-07 04:39:00,49.2,48.9,30.07,NE,54,0.0,0.0,99,0.00,,,0.00,VWS V14.01,2013-05-07 09:39:00,
2013-05-07 04:44:00,49.4,49.1,30.07,NE,54,0.0,0.0,99,0.00,,,0.00,VWS V14.01,2013-05-07 09:44:00,
2013-05-07 04:49:00,49.4,49.1,30.07,NE,54,0.0,0.0,99,0.00,,,0.00,VWS V14.01,2013-05-07 09:49:00,
2013-05-07 04:54:00,49.5,49.2,30.07,NE,54,0.0,0.0,99,0.00,,,0.00,VWS V14.01,2013-05-07 09:54:00,
2013-05-07 04:59:00,49.2,48.9,30.07,NE,54,0.0,0.0,99,0.00,,,0.00,VWS V14.01,2013-05-07 09:59:00,
2013-05-07 05:04:00,49.2,48.9,30.07,NE,54,0.0,0.0,99,0.00,,,0.00,VWS V14.01,2013-05-07 10:04:00,
2013-05-07 05:09:00,49.1,48.8,30.07,NE,54,0.0,0.0,99,0.00,,,0.00,VWS V14.01,2013-05-07 10:09:00,
2013-05-07 05:14:00,49.2,48.9,30.07,NE,54,0.0,0.0,99,0.00,,,0.00,VWS V14.01,2013-05-07 10:14:00,
2013-05-07 05:19:00,49.9,49.9,30.07,NE,54,0.0,0.0,100,0.00,,,0.00,VWS V14.01,2013-05-07 10:19:00,
2013-05-07 05:24:00,50.2,50.2,30.07,NE,54,0.0,0.0,100,0.00,,,0.00,VWS V14.01,2013-05-07 10:24:00,
2013-05-07 05:29:00,50.4,50.4,30.07,NE,54,0.0,0.0,100,0.00,,,0.00,VWS V14.01,2013-05-07 10:29:00,
2013-05-07 05:34:00,50.4,50.4,30.07,NE,54,0.0,0.0,100,0.00,,,0.00,VWS V14.01,2013-05-07 10:34:00,
2013-05-07 05:39:00,50.5,50.5,30.07,NE,54,0.0,0.0,100,0.00,,,0.00,VWS V14.01,2013-05-07 10:39:00,
2013-05-07 05:44:00,50.5,50.5,30.06,NE,54,0.0,0.0,100,0.00,,,0.00,VWS V14.01,2013-05-07 10:44:00,
2013-05-07 05:49:00,50.5,50.5,30.06,NE,54,0.0,0.0,100,0.00,,,0.00,VWS V14.01,2013-05-07 10:49:00,
2013-05-07 05:54:00,50.5,50.5,30.06,NE,54,0.0,0.0,100,0.00,,,0.00,VWS V14.01,2013-05-07 10:54:00,
2013-05-07 06:00:00,50.5,50.5,30.06,NE,54,0.0,0.0,100,0.00,,,0.00,VWS V14.01,2013-05-07 11:00:00,
2013-05-07 06:05:00,50.7,50.7,30.06,NE,54,0.0,0.0,100,0.00,,,0.00,VWS V14.01,2013-05-07 11:05:00,
2013-05-07 06:10:00,50.8,50.8,30.06,NE,54,0.0,0.0,100,0.00,,,0.00,VWS V14.01,2013-05-07 11:10:00,
2013-05-07 06:15:00,51.0,51.0,30.07,NE,54,0.0,0.0,100,0.00,,,0.00,VWS V14.01,2013-05-07 11:15:00,
2013-05-07 06:20:00,50.8,50.8,30.07,NE,54,0.0,0.0,100,0.00,,,0.00,VWS V14.01,2013-05-07 11:20:00,
2013-05-07 06:25:00,50.7,50.7,30.07,NE,54,0.0,0.0,100,0.00,,,0.00,VWS V14.01,2013-05-07 11:25:00,
2013-05-07 06:30:00,51.3,51.3,30.07,NE,54,0.0,1.0,100,0.00,,,0.00,VWS V14.01,2013-05-07 11:30:00,
2013-05-07 06:35:00,52.2,52.2,30.07,NE,54,1.0,5.0,100,0.00,,,0.00,VWS V14.01,2013-05-07 11:35:00,
2013-05-07 06:40:00,52.6,52.6,30.07,NE,54,0.0,5.0,100,0.00,,,0.00,VWS V14.01,2013-05-07 11:40:00,
2013-05-07 06:45:00,52.5,52.5,30.07,NE,54,0.0,5.0,100,0.00,,,0.00,VWS V14.01,2013-05-07 11:45:00,
2013-05-07 06:50:00,52.5,52.5,30.07,NE,54,0.0,5.0,100,0.00,,,0.00,VWS V14.01,2013-05-07 11:50:00,
2013-05-07 06:55:00,52.6,52.6,30.07,NE,56,2.0,5.0,100,0.00,,,0.00,VWS V14.01,2013-05-07 11:55:00,
2013-05-07 07:00:00,52.9,52.9,30.07,ENE,58,0.0,1.0,100,0.00,,,0.00,VWS V14.01,2013-05-07 12:00:00,
2013-05-07 07:05:00,53.1,52.5,30.07,ENE,58,0.0,3.0,98,0.00,,,0.00,VWS V14.01,2013-05-07 12:05:00,
2013-05-07 07:10:00,53.2,52.7,30.07,ENE,58,0.0,3.0,98,0.00,,,0.00,VWS V14.01,2013-05-07 12:10:00,
2013-05-07 07:15:00,53.3,52.8,30.08,ENE,58,1.0,3.0,98,0.00,,,0.00,VWS V14.01,2013-05-07 12:15:00,
2013-05-07 07:20:00,53.1,52.3,30.08,ENE,76,2.0,5.0,97,0.00,,,0.00,VWS V14.01,2013-05-07 12:20:00,
2013-05-07 07:25:00,52.9,52.1,30.08,East,85,0.0,5.0,97,0.00,,,0.00,VWS V14.01,2013-05-07 12:25:00,
2013-05-07 07:30:00,52.8,52.0,30.08,ENE,64,2.0,5.0,97,0.00,,,0.00,VWS V14.01,2013-05-07 12:30:00,
2013-05-07 07:35:00,52.6,52.0,30.08,East,85,5.0,6.0,98,0.00,,,0.00,VWS V14.01,2013-05-07 12:35:00,
2013-05-07 07:40:00,52.6,52.0,30.08,East,79,0.0,6.0,98,0.00,,,0.00,VWS V14.01,2013-05-07 12:40:00,
2013-05-07 07:45:00,52.6,51.8,30.08,ENE,73,2.0,6.0,97,0.00,,,0.00,VWS V14.01,2013-05-07 12:45:00,
2013-05-07 07:51:00,52.6,52.3,30.08,ENE,68,1.0,6.0,99,0.00,,,0.00,VWS V14.01,2013-05-07 12:51:00,
2013-05-07 07:56:00,52.9,52.1,30.08,ENE,73,3.0,6.0,97,0.00,,,0.00,VWS V14.01,2013-05-07 12:56:00,
2013-05-07 08:01:00,53.2,52.7,30.08,ENE,71,1.0,2.0,98,0.00,,,0.00,VWS V14.01,2013-05-07 13:01:00,
2013-05-07 08:06:00,53.8,53.2,30.08,ENE,71,0.0,2.0,98,0.00,,,0.00,VWS V14.01,2013-05-07 13:06:00,
2013-05-07 08:11:00,54.5,54.0,30.08,ENE,71,0.0,2.0,98,0.00,,,0.00,VWS V14.01,2013-05-07 13:11:00,
2013-05-07 08:16:00,55.1,54.0,30.09,ENE,61,0.0,2.0,96,0.00,,,0.00,VWS V14.01,2013-05-07 13:16:00,
2013-05-07 08:21:00,55.9,54.2,30.09,ENE,64,0.0,2.0,94,0.00,,,0.00,VWS V14.01,2013-05-07 13:21:00,
2013-05-07 08:26:00,56.3,53.7,30.09,ENE,64,0.0,2.0,91,0.00,,,0.00,VWS V14.01,2013-05-07 13:26:00,
2013-05-07 08:31:00,56.9,54.0,30.09,ENE,61,0.0,2.0,90,0.00,,,0.00,VWS V14.01,2013-05-07 13:31:00,
2013-05-07 08:36:00,57.2,53.4,30.09,ENE,62,0.0,2.0,87,0.00,,,0.00,VWS V14.01,2013-05-07 13:36:00,
2013-05-07 08:41:00,57.6,54.1,30.09,ENE,62,0.0,2.0,88,0.00,,,0.00,VWS V14.01,2013-05-07 13:41:00,
2013-05-07 08:46:00,58.1,53.9,30.10,ENE,62,0.0,2.0,86,0.00,,,0.00,VWS V14.01,2013-05-07 13:46:00,
2013-05-07 08:51:00,58.9,54.4,30.10,ENE,62,0.0,2.0,85,0.00,,,0.00,VWS V14.01,2013-05-07 13:51:00,
2013-05-07 08:56:00,59.3,53.1,30.10,ENE,71,0.0,2.0,80,0.00,,,0.00,VWS V14.01,2013-05-07 13:56:00,
2013-05-07 09:01:00,59.5,53.0,30.11,ENE,78,0.0,1.0,79,0.00,,,0.00,VWS V14.01,2013-05-07 14:01:00,
2013-05-07 09:06:00,59.9,53.4,30.11,ENE,78,0.0,1.0,79,0.00,,,0.00,VWS V14.01,2013-05-07 14:06:00,
2013-05-07 09:11:00,60.2,53.3,30.11,SSW,208,0.0,3.0,78,0.00,,,0.00,VWS V14.01,2013-05-07 14:11:00,
2013-05-07 09:16:00,60.5,52.9,30.11,SSW,200,0.0,3.0,76,0.00,,,0.00,VWS V14.01,2013-05-07 14:16:00,
2013-05-07 09:21:00,61.2,52.9,30.11,East,89,0.0,3.0,74,0.00,,,0.00,VWS V14.01,2013-05-07 14:21:00,
2013-05-07 09:26:00,61.6,54.0,30.11,East,89,0.0,3.0,76,0.00,,,0.00,VWS V14.01,2013-05-07 14:26:00,
2013-05-07 09:31:00,62.6,54.6,30.11,East,92,0.0,3.0,75,0.00,,,0.00,VWS V14.01,2013-05-07 14:31:00,
2013-05-07 09:37:00,63.2,54.0,30.11,East,89,0.0,3.0,72,0.00,,,0.00,VWS V14.01,2013-05-07 14:37:00,
2013-05-07 09:42:00,63.9,55.1,30.11,ESE,113,0.0,3.0,73,0.00,,,0.00,VWS V14.01,2013-05-07 14:42:00,
2013-05-07 09:47:00,64.2,53.8,30.10,ESE,113,1.0,5.0,69,0.00,,,0.00,VWS V14.01,2013-05-07 14:47:00,
2013-05-07 09:52:00,65.2,54.8,30.10,SSE,168,0.0,5.0,69,0.00,,,0.00,VWS V14.01,2013-05-07 14:52:00,
2013-05-07 09:57:00,65.2,54.0,30.10,East,88,2.0,5.0,67,0.00,,,0.00,VWS V14.01,2013-05-07 14:57:00,
2013-05-07 10:02:00,65.2,54.4,30.10,SSE,160,2.0,5.0,68,0.00,,FEW120,0.00,VWS V14.01,2013-05-07 15:02:00,
2013-05-07 10:07:00,65.0,53.4,30.10,SE,138,0.0,5.0,66,0.00,,FEW120,0.00,VWS V14.01,2013-05-07 15:07:00,
2013-05-07 10:12:00,65.5,54.7,30.10,NE,56,0.0,5.0,68,0.00,,FEW120,0.00,VWS V14.01,2013-05-07 15:12:00,
2013-05-07 10:17:00,66.4,54.7,30.10,SE,124,0.0,5.0,66,0.00,,FEW120,0.00,VWS V14.01,2013-05-07 15:17:00,
2013-05-07 10:22:00,66.6,54.1,30.10,ESE,103,0.0,5.0,64,0.00,,FEW120,0.00,VWS V14.01,2013-05-07 15:22:00,
2013-05-07 10:27:00,66.8,54.7,30.10,SE,134,1.0,5.0,65,0.00,,FEW120,0.00,VWS V14.01,2013-05-07 15:27:00,
2013-05-07 10:32:00,67.4,54.4,30.10,SE,130,0.0,5.0,63,0.00,,FEW120,0.00,VWS V14.01,2013-05-07 15:32:00,
2013-05-07 10:37:00,67.3,54.7,30.10,ENE,78,3.0,7.0,64,0.00,,FEW120,0.00,VWS V14.01,2013-05-07 15:37:00,
2013-05-07 10:42:00,67.4,54.4,30.10,ESE,106,3.0,7.0,63,0.00,,FEW120,0.00,VWS V14.01,2013-05-07 15:42:00,
2013-05-07 10:47:00,67.1,53.2,30.10,ESE,117,0.0,7.0,61,0.00,,FEW120,0.00,VWS V14.01,2013-05-07 15:47:00,
2013-05-07 10:52:00,67.1,54.1,30.10,SE,131,0.0,7.0,63,0.00,,FEW120,0.00,VWS V14.01,2013-05-07 15:52:00,
2013-05-07 10:57:00,67.1,53.7,30.10,SE,133,0.0,7.0,62,0.00,,FEW120,0.00,VWS V14.01,2013-05-07 15:57:00,
2013-05-07 11:02:00,67.6,54.1,30.11,SSE,162,0.0,2.0,62,0.00,,FEW120,0.00,VWS V14.01,2013-05-07 16:02:00,
2013-05-07 11:07:00,67.9,54.4,30.11,ESE,114,2.0,5.0,62,0.00,,FEW120,0.00,VWS V14.01,2013-05-07 16:07:00,
2013-05-07 11:12:00,68.4,55.3,30.11,SSE,148,0.0,5.0,63,0.00,,FEW120,0.00,VWS V14.01,2013-05-07 16:12:00,
2013-05-07 11:17:00,68.8,54.8,30.11,SE,141,0.0,5.0,61,0.00,,FEW120,0.00,VWS V14.01,2013-05-07 16:17:00,
2013-05-07 11:22:00,69.3,54.8,30.11,SSW,210,2.0,6.0,60,0.00,,FEW120,0.00,VWS V14.01,2013-05-07 16:22:00,
2013-05-07 11:27:00,69.1,55.1,30.11,SW,232,3.0,6.0,61,0.00,,FEW120,0.00,VWS V14.01,2013-05-07 16:27:00,
2013-05-07 11:33:00,69.4,53.5,30.10,South,189,0.0,6.0,57,0.00,,FEW120,0.00,VWS V14.01,2013-05-07 16:33:00,
2013-05-07 11:38:00,69.9,54.9,30.10,SSW,192,0.0,6.0,59,0.00,,FEW120,0.00,VWS V14.01,2013-05-07 16:38:00,
2013-05-07 11:43:00,69.8,54.4,30.10,South,172,0.0,6.0,58,0.00,,FEW120,0.00,VWS V14.01,2013-05-07 16:43:00,
2013-05-07 11:48:00,69.8,53.9,30.10,West,274,0.0,6.0,57,0.00,,FEW120,0.00,VWS V14.01,2013-05-07 16:48:00,
2013-05-07 11:53:00,70.6,55.1,30.10,SE,145,1.0,6.0,58,0.00,,FEW120,0.00,VWS V14.01,2013-05-07 16:53:00,
2013-05-07 11:58:00,71.1,54.6,30.10,East,89,0.0,6.0,56,0.00,,FEW120,0.00,VWS V14.01,2013-05-07 16:58:00,
2013-05-07 12:03:00,70.6,53.2,30.09,East,92,0.0,2.0,54,0.00,,FEW110,0.00,VWS V14.01,2013-05-07 17:03:00,
2013-05-07 12:08:00,71.3,53.8,30.09,East,92,0.0,2.0,54,0.00,,FEW110,0.00,VWS V14.01,2013-05-07 17:08:00,
2013-05-07 12:13:00,71.5,55.5,30.09,East,88,0.0,5.0,57,0.00,,FEW110,0.00,VWS V14.01,2013-05-07 17:13:00,
2013-05-07 12:18:00,71.5,54.5,30.09,ENE,68,1.0,5.0,55,0.00,,FEW110,0.00,VWS V14.01,2013-05-07 17:18:00,
2013-05-07 12:23:00,71.5,53.5,30.09,ENE,71,0.0,5.0,53,0.00,,FEW110,0.00,VWS V14.01,2013-05-07 17:23:00,
2013-05-07 12:28:00,72.1,53.5,30.09,SSE,165,2.0,5.0,52,0.00,,FEW110,0.00,VWS V14.01,2013-05-07 17:28:00,
2013-05-07 12:33:00,72.5,53.4,30.09,SW,215,0.0,5.0,51,0.00,,FEW110,0.00,VWS V14.01,2013-05-07 17:33:00,
2013-05-07 12:38:00,72.7,53.0,30.09,SSE,160,0.0,5.0,50,0.00,,FEW110,0.00,VWS V14.01,2013-05-07 17:38:00,
2013-05-07 12:43:00,73.0,54.4,30.09,SW,232,0.0,5.0,52,0.00,,FEW110,0.00,VWS V14.01,2013-05-07 17:43:00,
2013-05-07 12:48:00,73.3,53.6,30.08,West,277,0.0,5.0,50,0.00,,FEW110,0.00,VWS V14.01,2013-05-07 17:48:00,
2013-05-07 12:53:00,73.3,54.6,30.08,West,270,2.0,5.0,52,0.00,,FEW110,0.00,VWS V14.01,2013-05-07 17:53:00,
2013-05-07 12:58:00,73.3,54.1,30.08,ESE,114,2.0,5.0,51,0.00,,FEW110,0.00,VWS V14.01,2013-05-07 17:58:00,
2013-05-07 13:00:00,73.3,55.7,30.07,East,82,1.0,5.0,54,0.00,,OVC041CB,0.00,VWS V14.01,2013-05-07 18:00:00,
2013-05-07 13:03:00,73.2,55.6,30.07,SE,127,5.0,7.0,54,0.00,,SCT110,0.00,VWS V14.01,2013-05-07 18:03:00,
2013-05-07 13:09:00,73.2,52.9,30.07,ESE,119,0.0,7.0,49,0.00,,SCT110,0.00,VWS V14.01,2013-05-07 18:09:00,
2013-05-07 13:14:00,73.2,54.0,30.07,North,356,2.0,7.0,51,0.00,,SCT110,0.00,VWS V14.01,2013-05-07 18:14:00,
2013-05-07 13:19:00,73.2,55.1,30.07,East,93,0.0,7.0,53,0.00,,SCT110,0.00,VWS V14.01,2013-05-07 18:19:00,
2013-05-07 13:24:00,73.5,54.3,30.07,East,89,2.0,7.0,51,0.00,,SCT110,0.00,VWS V14.01,2013-05-07 18:24:00,
2013-05-07 13:29:00,73.0,53.8,30.07,ENE,78,3.0,7.0,51,0.00,,SCT110,0.00,VWS V14.01,2013-05-07 18:29:00,
2013-05-07 13:34:00,73.3,54.6,30.06,ENE,72,0.0,7.0,52,0.00,,SCT110,0.00,VWS V14.01,2013-05-07 18:34:00,
2013-05-07 13:39:00,73.7,53.9,30.06,NE,42,0.0,7.0,50,0.00,,SCT110,0.00,VWS V14.01,2013-05-07 18:39:00,
2013-05-07 13:44:00,73.9,54.7,30.06,East,89,3.0,7.0,51,0.00,,SCT110,0.00,VWS V14.01,2013-05-07 18:44:00,
2013-05-07 13:49:00,74.2,54.9,30.06,ENE,73,2.0,7.0,51,0.00,,SCT110,0.00,VWS V14.01,2013-05-07 18:49:00,
2013-05-07 13:54:00,74.9,54.5,30.06,East,89,2.0,7.0,49,0.00,,SCT110,0.00,VWS V14.01,2013-05-07 18:54:00,
2013-05-07 13:59:00,75.1,54.1,30.05,ESE,117,2.0,7.0,48,0.00,,SCT110,0.00,VWS V14.01,2013-05-07 18:59:00,
2013-05-07 14:04:00,74.2,53.8,30.05,East,90,0.0,5.0,49,0.00,,SCT110,0.00,VWS V14.01,2013-05-07 19:04:00,
2013-05-07 14:09:00,73.7,53.9,30.05,ENE,75,3.0,7.0,50,0.00,,SCT110,0.00,VWS V14.01,2013-05-07 19:09:00,
2013-05-07 14:14:00,73.3,52.5,30.05,ENE,72,0.0,7.0,48,0.00,,SCT110,0.00,VWS V14.01,2013-05-07 19:14:00,
2013-05-07 14:19:00,74.0,53.7,30.05,East,97,3.0,7.0,49,0.00,,SCT110,0.00,VWS V14.01,2013-05-07 19:19:00,
2013-05-07 14:24:00,74.7,53.7,30.05,East,92,5.0,7.0,48,0.00,,SCT110,0.00,VWS V14.01,2013-05-07 19:24:00,
2013-05-07 14:29:00,74.7,53.2,30.04,SE,128,2.0,7.0,47,0.00,,SCT110,0.00,VWS V14.01,2013-05-07 19:29:00,
2013-05-07 14:34:00,75.4,52.0,30.04,East,82,2.0,7.0,44,0.00,,SCT110,0.00,VWS V14.01,2013-05-07 19:34:00,
2013-05-07 14:39:00,75.4,50.1,30.04,SSE,158,0.0,7.0,41,0.00,,SCT110,0.00,VWS V14.01,2013-05-07 19:39:00,
2013-05-07 14:44:00,75.4,52.6,30.03,ESE,102,0.0,7.0,45,0.00,,SCT110,0.00,VWS V14.01,2013-05-07 19:44:00,
2013-05-07 14:49:00,75.4,50.1,30.03,ESE,104,0.0,7.0,41,0.00,,SCT110,0.00,VWS V14.01,2013-05-07 19:49:00,
2013-05-07 14:54:00,75.6,47.5,30.03,SE,138,0.0,7.0,37,0.00,,SCT110,0.00,VWS V14.01,2013-05-07 19:54:00,
2013-05-07 15:00:00,75.3,50.7,30.03,SE,138,2.0,7.0,42,0.00,,SCT110,0.00,VWS V14.01,2013-05-07 20:00:00,
2013-05-07 15:05:00,75.3,50.7,30.03,ESE,112,0.0,6.0,42,0.00,,FEW050,0.00,VWS V14.01,2013-05-07 20:05:00,
2013-05-07 15:10:00,75.6,50.3,30.03,East,82,3.0,7.0,41,0.00,,FEW050,0.00,VWS V14.01,2013-05-07 20:10:00,
2013-05-07 15:15:00,75.6,51.5,30.02,East,83,2.0,7.0,43,0.00,,FEW050,0.00,VWS V14.01,2013-05-07 20:15:00,
2013-05-07 15:20:00,75.3,48.7,30.02,SSE,155,2.0,7.0,39,0.00,,FEW050,0.00,VWS V14.01,2013-05-07 20:20:00,
2013-05-07 15:25:00,75.6,49.6,30.02,ENE,78,0.0,7.0,40,0.00,,FEW050,0.00,VWS V14.01,2013-05-07 20:25:00,
2013-05-07 15:30:00,76.0,51.3,30.01,ESE,103,2.0,7.0,42,0.00,,FEW050,0.00,VWS V14.01,2013-05-07 20:30:00,
2013-05-07 15:35:00,76.1,52.6,30.01,East,97,3.0,10.0,44,0.00,,FEW050,0.00,VWS V14.01,2013-05-07 20:35:00,
2013-05-07 15:40:00,76.5,50.4,30.01,SSW,209,1.0,10.0,40,0.00,,FEW050,0.00,VWS V14.01,2013-05-07 20:40:00,
2013-05-07 15:45:00,76.1,51.4,30.01,ENE,73,2.0,10.0,42,0.00,,FEW050,0.00,VWS V14.01,2013-05-07 20:45:00,
2013-05-07 15:50:00,75.8,52.4,30.01,ENE,78,2.0,10.0,44,0.00,,FEW050,0.00,VWS V14.01,2013-05-07 20:50:00,
2013-05-07 15:55:00,75.8,51.7,30.01,East,93,0.0,10.0,43,0.00,,FEW050,0.00,VWS V14.01,2013-05-07 20:55:00,
2013-05-07 16:00:00,75.4,49.4,30.00,ENE,62,7.0,7.0,40,0.00,,FEW050,0.00,VWS V14.01,2013-05-07 21:00:00,
2013-05-07 16:05:00,75.4,48.8,30.00,East,82,2.0,7.0,39,0.00,,FEW050,0.00,VWS V14.01,2013-05-07 21:05:00,
2013-05-07 16:10:00,75.8,49.1,30.00,ENE,72,3.0,7.0,39,0.00,,FEW050,0.00,VWS V14.01,2013-05-07 21:10:00,
2013-05-07 16:15:00,76.3,48.1,30.00,SE,137,5.0,7.0,37,0.00,,FEW050,0.00,VWS V14.01,2013-05-07 21:15:00,
2013-05-07 16:20:00,76.5,46.8,30.00,East,92,5.0,10.0,35,0.00,,FEW050,0.00,VWS V14.01,2013-05-07 21:20:00,
2013-05-07 16:25:00,76.0,48.6,30.00,SSE,157,2.0,10.0,38,0.00,,FEW050,0.00,VWS V14.01,2013-05-07 21:25:00,
2013-05-07 16:30:00,76.0,48.6,30.00,East,79,6.0,10.0,38,0.00,,FEW050,0.00,VWS V14.01,2013-05-07 21:30:00,
2013-05-07 16:35:00,75.6,46.8,30.00,ENE,72,3.0,10.0,36,0.00,,FEW050,0.00,VWS V14.01,2013-05-07 21:35:00,
2013-05-07 16:40:00,76.0,47.9,30.00,ENE,78,3.0,10.0,37,0.00,,FEW050,0.00,VWS V14.01,2013-05-07 21:40:00,
2013-05-07 16:45:00,76.1,47.2,29.99,East,86,5.0,10.0,36,0.00,,FEW050,0.00,VWS V14.01,2013-05-07 21:45:00,
2013-05-07 16:50:00,76.3,46.7,29.99,East,88,0.0,10.0,35,0.00,,FEW050,0.00,VWS V14.01,2013-05-07 21:50:00,
2013-05-07 16:55:00,76.3,46.7,29.99,East,85,5.0,10.0,35,0.00,,FEW050,0.00,VWS V14.01,2013-05-07 21:55:00,
2013-05-07 17:01:00,76.1,45.7,29.99,ENE,65,2.0,2.0,34,0.00,,FEW055,0.00,VWS V14.01,2013-05-07 22:01:00,
2013-05-07 17:06:00,76.0,44.8,29.99,East,80,2.0,10.0,33,0.00,,FEW055,0.00,VWS V14.01,2013-05-07 22:06:00,
2013-05-07 17:11:00,76.0,44.0,29.99,East,83,1.0,10.0,32,0.00,,FEW055,0.00,VWS V14.01,2013-05-07 22:11:00,
2013-05-07 17:16:00,76.5,46.1,29.99,SSW,210,5.0,10.0,34,0.00,,FEW055,0.00,VWS V14.01,2013-05-07 22:16:00,
2013-05-07 17:21:00,76.7,44.7,29.99,East,83,5.0,10.0,32,0.00,,FEW055,0.00,VWS V14.01,2013-05-07 22:21:00,
2013-05-07 17:26:00,76.5,49.0,29.99,East,80,5.0,10.0,38,0.00,,FEW055,0.00,VWS V14.01,2013-05-07 22:26:00,
2013-05-07 17:31:00,76.0,47.9,29.98,ESE,113,1.0,10.0,37,0.00,,FEW055,0.00,VWS V14.01,2013-05-07 22:31:00,
2013-05-07 17:36:00,76.3,48.1,29.98,East,89,0.0,10.0,37,0.00,,FEW055,0.00,VWS V14.01,2013-05-07 22:36:00,
2013-05-07 17:41:00,76.7,45.5,29.98,South,189,2.0,10.0,33,0.00,,FEW055,0.00,VWS V14.01,2013-05-07 22:41:00,
2013-05-07 17:46:00,77.2,47.5,29.98,WSW,239,0.0,10.0,35,0.00,,FEW055,0.00,VWS V14.01,2013-05-07 22:46:00,
2013-05-07 17:51:00,77.4,45.3,29.98,East,88,0.0,10.0,32,0.00,,FEW055,0.00,VWS V14.01,2013-05-07 22:51:00,
2013-05-07 17:56:00,77.0,45.7,29.98,SSE,151,6.0,10.0,33,0.00,,FEW055,0.00,VWS V14.01,2013-05-07 22:56:00,
2013-05-07 18:01:00,76.8,46.3,29.98,SE,145,0.0,2.0,34,0.00,,FEW058,0.00,VWS V14.01,2013-05-07 23:01:00,
2013-05-07 18:06:00,76.5,47.6,29.98,East,90,3.0,6.0,36,0.00,,FEW058,0.00,VWS V14.01,2013-05-07 23:06:00,
2013-05-07 18:11:00,76.0,48.6,29.98,SSE,154,5.0,6.0,38,0.00,,FEW058,0.00,VWS V14.01,2013-05-07 23:11:00,
2013-05-07 18:16:00,76.0,49.3,29.97,SSE,152,0.0,7.0,39,0.00,,FEW058,0.00,VWS V14.01,2013-05-07 23:16:00,
2013-05-07 18:21:00,76.1,48.7,29.97,SE,131,0.0,7.0,38,0.00,,FEW058,0.00,VWS V14.01,2013-05-07 23:21:00,
2013-05-07 18:26:00,76.3,47.4,29.97,SE,124,2.0,7.0,36,0.00,,FEW058,0.00,VWS V14.01,2013-05-07 23:26:00,
2013-05-07 18:31:00,76.3,49.5,29.97,SSW,210,0.0,7.0,39,0.00,,FEW058,0.00,VWS V14.01,2013-05-07 23:31:00,
2013-05-07 18:36:00,76.1,50.0,29.97,East,92,1.0,7.0,40,0.00,,FEW058,0.00,VWS V14.01,2013-05-07 23:36:00,
2013-05-07 18:41:00,76.1,49.4,29.97,South,184,0.0,7.0,39,0.00,,FEW058,0.00,VWS V14.01,2013-05-07 23:41:00,
2013-05-07 18:46:00,76.1,48.7,29.96,SSE,155,0.0,7.0,38,0.00,,FEW058,0.00,VWS V14.01,2013-05-07 23:46:00,
2013-05-07 18:51:00,75.6,52.2,29.96,ENE,71,1.0,7.0,44,0.00,,FEW058,0.00,VWS V14.01,2013-05-07 23:51:00,
2013-05-07 18:56:00,74.9,51.5,29.96,ESE,116,0.0,7.0,44,0.00,,FEW058,0.00,VWS V14.01,2013-05-07 23:56:00,
2013-05-07 19:00:00,74.9,51.5,29.96,ESE,110,2.0,7.0,44,0.00,,OVC041CB,0.00,VWS V14.01,2013-05-08 00:00:00,
2013-05-07 19:01:00,74.9,50.9,29.96,East,93,2.0,3.0,43,0.00,,FEW056,0.00,VWS V14.01,2013-05-08 00:01:00,
2013-05-07 19:07:00,74.6,50.0,29.96,East,90,2.0,6.0,42,0.00,,FEW056,0.00,VWS V14.01,2013-05-08 00:07:00,
2013-05-07 19:12:00,74.2,51.5,29.96,SE,137,0.0,7.0,45,0.00,,FEW056,0.00,VWS V14.01,2013-05-08 00:12:00,
2013-05-07 19:17:00,74.4,51.7,29.97,ESE,117,0.0,7.0,45,0.00,,FEW056,0.00,VWS V14.01,2013-05-08 00:17:00,
2013-05-07 19:22:00,74.4,52.3,29.97,SE,138,5.0,7.0,46,0.00,,FEW056,0.00,VWS V14.01,2013-05-08 00:22:00,
2013-05-07 19:27:00,74.0,51.9,29.97,East,93,0.0,7.0,46,0.00,,FEW056,0.00,VWS V14.01,2013-05-08 00:27:00,
2013-05-07 19:32:00,73.7,52.2,29.97,SE,130,2.0,7.0,47,0.00,,FEW056,0.00,VWS V14.01,2013-05-08 00:32:00,
2013-05-07 19:37:00,73.7,52.2,29.97,ESE,116,2.0,7.0,47,0.00,,FEW056,0.00,VWS V14.01,2013-05-08 00:37:00,
2013-05-07 19:42:00,73.5,53.2,29.97,East,89,2.0,7.0,49,0.00,,FEW056,0.00,VWS V14.01,2013-05-08 00:42:00,
2013-05-07 19:47:00,73.3,53.6,29.97,East,92,0.0,7.0,50,0.00,,FEW056,0.00,VWS V14.01,2013-05-08 00:47:00,
2013-05-07 19:52:00,73.2,53.5,29.97,SE,138,0.0,7.0,50,0.00,,FEW056,0.00,VWS V14.01,2013-05-08 00:52:00,
2013-05-07 19:57:00,72.8,53.1,29.97,SE,145,0.0,7.0,50,0.00,,FEW056,0.00,VWS V14.01,2013-05-08 00:57:00,
2013-05-07 20:00:00,72.7,53.5,29.97,SE,126,0.0,7.0,51,0.00,,OVC041CB,0.00,VWS V14.01,2013-05-08 01:00:00,
2013-05-07 20:02:00,72.5,53.4,29.97,ESE,123,0.0,2.0,51,0.00,,CLR,0.00,VWS V14.01,2013-05-08 01:02:00,
2013-05-07 20:07:00,72.3,53.2,29.97,ESE,123,0.0,2.0,51,0.00,,CLR,0.00,VWS V14.01,2013-05-08 01:07:00,
2013-05-07 20:12:00,72.0,53.4,29.97,SE,124,0.0,2.0,52,0.00,,CLR,0.00,VWS V14.01,2013-05-08 01:12:00,
2013-05-07 20:17:00,71.6,53.6,29.97,SE,124,1.0,2.0,53,0.00,,CLR,0.00,VWS V14.01,2013-05-08 01:17:00,
2013-05-07 20:22:00,71.5,53.5,29.97,SE,124,0.0,2.0,53,0.00,,CLR,0.00,VWS V14.01,2013-05-08 01:22:00,
2013-05-07 20:27:00,71.1,53.6,29.97,ESE,123,0.0,2.0,54,0.00,,CLR,0.00,VWS V14.01,2013-05-08 01:27:00,
2013-05-07 20:32:00,70.9,53.4,29.97,ESE,117,0.0,2.0,54,0.00,,CLR,0.00,VWS V14.01,2013-05-08 01:32:00,
2013-05-07 20:37:00,70.8,53.8,29.97,ESE,116,0.0,2.0,55,0.00,,CLR,0.00,VWS V14.01,2013-05-08 01:37:00,
2013-05-07 20:42:00,70.4,53.5,29.97,ESE,117,0.0,2.0,55,0.00,,CLR,0.00,VWS V14.01,2013-05-08 01:42:00,
2013-05-07 20:47:00,70.3,53.4,29.97,ESE,117,0.0,2.0,55,0.00,,CLR,0.00,VWS V14.01,2013-05-08 01:47:00,
2013-05-07 20:52:00,69.9,53.5,29.97,ESE,117,0.0,2.0,56,0.00,,CLR,0.00,VWS V14.01,2013-05-08 01:52:00,
2013-05-07 20:57:00,69.9,53.0,29.97,ESE,116,0.0,2.0,55,0.00,,CLR,0.00,VWS V14.01,2013-05-08 01:57:00,
2013-05-07 21:03:00,69.8,52.4,29.97,ESE,117,0.0,0.0,54,0.00,,CLR,0.00,VWS V14.01,2013-05-08 02:03:00,
2013-05-07 21:08:00,69.8,51.9,29.97,East,100,0.0,2.0,53,0.00,,CLR,0.00,VWS V14.01,2013-05-08 02:08:00,
2013-05-07 21:13:00,69.8,51.9,29.97,ESE,103,2.0,3.0,53,0.00,,CLR,0.00,VWS V14.01,2013-05-08 02:13:00,
2013-05-07 21:18:00,69.8,51.9,29.97,ESE,102,0.0,3.0,53,0.00,,CLR,0.00,VWS V14.01,2013-05-08 02:18:00,
2013-05-07 21:23:00,69.6,51.7,29.97,East,99,0.0,3.0,53,0.00,,CLR,0.00,VWS V14.01,2013-05-08 02:23:00,
2013-05-07 21:28:00,69.6,52.2,29.97,East,100,0.0,3.0,54,0.00,,CLR,0.00,VWS V14.01,2013-05-08 02:28:00,
2013-05-07 21:33:00,69.1,52.3,29.98,East,100,0.0,3.0,55,0.00,,CLR,0.00,VWS V14.01,2013-05-08 02:33:00,
2013-05-07 21:38:00,68.6,52.3,29.98,East,97,0.0,3.0,56,0.00,,CLR,0.00,VWS V14.01,2013-05-08 02:38:00,
2013-05-07 21:43:00,68.3,52.5,29.98,East,97,0.0,3.0,57,0.00,,CLR,0.00,VWS V14.01,2013-05-08 02:43:00,
2013-05-07 21:48:00,68.1,52.3,29.98,East,93,0.0,3.0,57,0.00,,CLR,0.00,VWS V14.01,2013-05-08 02:48:00,
2013-05-07 21:53:00,68.1,52.8,29.98,East,88,0.0,3.0,58,0.00,,CLR,0.00,VWS V14.01,2013-05-08 02:53:00,
2013-05-07 21:58:00,68.1,52.8,29.98,East,86,0.0,3.0,58,0.00,,CLR,0.00,VWS V14.01,2013-05-08 02:58:00,
2013-05-07 22:03:00,68.3,53.9,29.98,East,88,1.0,2.0,60,0.00,,CLR,0.00,VWS V14.01,2013-05-08 03:03:00,
2013-05-07 22:08:00,68.4,53.1,29.98,ESE,104,0.0,5.0,58,0.00,,CLR,0.00,VWS V14.01,2013-05-08 03:08:00,
2013-05-07 22:13:00,68.4,53.1,29.98,East,99,0.0,5.0,58,0.00,,CLR,0.00,VWS V14.01,2013-05-08 03:13:00,
2013-05-07 22:18:00,68.6,52.8,29.99,East,95,0.0,5.0,57,0.00,,CLR,0.00,VWS V14.01,2013-05-08 03:18:00,
2013-05-07 22:24:00,68.6,52.8,29.99,East,99,1.0,5.0,57,0.00,,CLR,0.00,VWS V14.01,2013-05-08 03:24:00,
2013-05-07 22:29:00,68.6,52.3,29.99,ESE,104,0.0,5.0,56,0.00,,CLR,0.00,VWS V14.01,2013-05-08 03:29:00,
2013-05-07 22:34:00,68.4,52.1,29.99,East,100,0.0,5.0,56,0.00,,CLR,0.00,VWS V14.01,2013-05-08 03:34:00,
2013-05-07 22:39:00,68.1,52.3,29.99,East,97,0.0,5.0,57,0.00,,CLR,0.00,VWS V14.01,2013-05-08 03:39:00,
2013-05-07 22:44:00,68.1,51.8,29.99,ESE,120,0.0,5.0,56,0.00,,CLR,0.00,VWS V14.01,2013-05-08 03:44:00,
2013-05-07 22:49:00,68.1,51.3,29.99,ESE,119,1.0,5.0,55,0.00,,CLR,0.00,VWS V14.01,2013-05-08 03:49:00,
2013-05-07 22:54:00,67.9,50.7,29.99,East,96,0.0,5.0,54,0.00,,CLR,0.00,VWS V14.01,2013-05-08 03:54:00,
2013-05-07 22:59:00,67.8,50.6,29.99,East,99,1.0,5.0,54,0.00,,CLR,0.00,VWS V14.01,2013-05-08 03:59:00,
2013-05-07 23:01:00,67.9,50.2,29.99,SE,145,1.0,5.0,53,0.00,,CLR,0.00,VWS V14.01,2013-05-08 04:01:00,
2013-05-07 23:03:00,67.9,50.2,29.99,East,92,0.0,5.0,53,0.00,,CLR,0.00,VWS V14.01,2013-05-08 04:03:00,
2013-05-07 23:08:00,67.9,50.2,29.99,East,92,1.0,5.0,53,0.00,,CLR,0.00,VWS V14.01,2013-05-08 04:08:00,
2013-05-07 23:09:00,67.9,50.2,29.99,ESE,112,1.0,5.0,53,0.00,,CLR,0.00,VWS V14.01,2013-05-08 04:09:00,
2013-05-07 23:15:00,68.1,49.3,29.98,East,88,2.0,5.0,51,0.00,,CLR,0.00,VWS V14.01,2013-05-08 04:15:00,
2013-05-07 23:20:00,68.1,50.3,29.98,ESE,106,0.0,5.0,53,0.00,,CLR,0.00,VWS V14.01,2013-05-08 04:20:00,
2013-05-07 23:25:00,67.9,51.2,29.98,ESE,109,0.0,5.0,55,0.00,,CLR,0.00,VWS V14.01,2013-05-08 04:25:00,
2013-05-07 23:30:00,67.8,51.1,29.98,SE,127,5.0,5.0,55,0.00,,CLR,0.00,VWS V14.01,2013-05-08 04:30:00,
2013-05-07 23:35:00,67.8,50.6,29.98,ESE,123,3.0,5.0,54,0.00,,CLR,0.00,VWS V14.01,2013-05-08 04:35:00,
2013-05-07 23:40:00,67.6,50.9,29.98,East,100,1.0,5.0,55,0.00,,CLR,0.00,VWS V14.01,2013-05-08 04:40:00,
2013-05-07 23:45:00,67.4,50.7,29.98,East,92,0.0,5.0,55,0.00,,CLR,0.00,VWS V14.01,2013-05-08 04:45:00,
2013-05-07 23:50:00,67.3,50.1,29.98,East,90,1.0,5.0,54,0.00,,CLR,0.00,VWS V14.01,2013-05-08 04:50:00,
2013-05-07 23:55:00,67.1,50.4,29.98,SE,124,2.0,5.0,55,0.00,,CLR,0.00,VWS V14.01,2013-05-08 04:55:00,